Zurück zum Katalog

LEMUR-2-DELOITTE-5

AktivMilitärSSO
NORAD 69910·PAYLOAD·🇺🇸 United States

Gestartet Jul 7, 2026 von Vandenberg Space Force Base

Loading…

Nächste Überflüge (nächste 24 Stunden)

TLE

AktuellSource: Space-Track

Epoche: Sep 14, 2026, 15:53 UTC

1 69910U 26156AT  26257.66220480  .00002963  00000-0  30315-3 0  9990
2 69910  97.7464 156.8976 0001543 291.6509  68.4545 14.91289157 10337

Verfolge LEMUR-2-DELOITTE-5 in Echtzeit mit AllMySat

Download on the App Store